496  
ASUS43 KLMK 031010  
RWRKY  
KENTUCKY REGIONAL WEATHER ROUNDUP  
NATIONAL WEATHER SERVICE LOUISVILLE KY  
600 AM EDT THU SEP 03 2015  
 
NOTE "FAIR" INDICATES FEW OR NO CLOUDS BELOW 12,000 FEET  
WITH NO SIGNIFICANT WEATHER AND/OR S TO VISIBILITY
.  
 
KYZ001>023-026-027-061>063-070>075-031100-  
WESTERN AND SOUTH CENTRAL KENTUCKY  
 
CITY SKY/WX TMP DP RH WIND PRES REMARKS
 
PADUCAH CLEAR 67 65 93 CALM 30.00S  
HENDERSON CLEAR 66 63 88 CALM 30.00R  
OWENSBORO CLEAR 70 68 93 CALM 30.02R  
HOPKINSVILLE CLEAR 70 66 87 CALM 30.01R  
BOWLING GREEN CLEAR 69 66 90 CALM 30.02S  
GLASGOW CLEAR 65 65 100 CALM 30.03R FOG  

 
 
KYZ024-025-028>034-038-045-046-053-031100-  
NORTH CENTRAL KENTUCKY  
 
CITY SKY/WX TMP DP RH WIND PRES REMARKS
 
LOUISVILLE/SDF CLEAR 73 69 87 CALM 30.02R FOG  
LOUISVILLE/LOU CLEAR 70 68 93 CALM 30.03R FOG  
FORT KNOX CLEAR 66 65 96 NW3 30.02R FOG  

 
 
KYZ035>037-039>044-047>052-055>060-089>105-031100-  
NORTHEAST KENTUCKY  
 
CITY SKY/WX TMP DP RH WIND PRES REMARKS
 
LEXINGTON CLEAR 68 65 90 CALM 30.03S FOG  
COVINGTON PTCLDY 68 66 93 SW3 30.03R FOG  
FRANKFORT CLEAR 66 64 93 CALM 30.02S FOG  

 
 
KYZ054-064>069-076>088-106>120-031100-  
SOUTHEAST KENTUCKY  
 
CITY SKY/WX TMP DP RH WIND PRES REMARKS
 
JACKSON CLEAR 67 65 93 CALM 30.05S FOG  
LONDON PTCLDY 65 61 87 CALM 30.05S FOG  
SOMERSET PTCLDY 63 63 100 CALM 30.05S FOG  
MIDDLESBORO MOCLDY 64 64 100 CALM 30.07S FOG  
MONTICELLO SUNNY 63 63 100 CALM 30.07S FOG  

 
 
CLICK HERE TO GO TO PREVIOUS BULLETINS.

The Nexlab KY Page Main Text Page